If you wish to contribute or participate in the discussions about articles you are invited to join SKYbrary as a registered user

 Actions

Alderney Airport

From SKYbrary Wiki

EGJA
Airport
ICAO: EGJA – IATA: ACI
Summary
Name Alderney Airport
Region Europe
Territory United Kingdom GB.gif
Location St. Anne, Guernsey
Serving Alderney
Elevation 88.392 m
290 ft
290 ft88.392 m
Type medium airport
Coordinates 49° 42' 22.00" N, 2° 12' 53.00" W
Runways
Designator Length Width Surface ROPS
3/21 497 m1,630.577 ft
37 m121.391 ft
GRE /
8/26 880 m2,887.139 ft
23 m75.459 ft
ASP /
14/32 732 m2,401.575 ft
37 m121.391 ft
GRE /


METAR
Observation EGJA 191620Z 33006KT 9999 FEW006 13/10 Q1011
Station Alderney / Channel Island
Date/Time 19 May 2019 16:20:00
Wind direction 330°
Wind speed 06 kts
Lowest cloud amount few clouds
Temperature 13°C
Dew point 10°C
Humidity 82%
QNH 1011 hPa
Weather condition n/a

Alderney Airport

ICAO: EGJA IATA: ACI

Description

Alderney Airport is the only airport on the island of Alderney. Located on the Blaye 1.9 km1.026 nm
1,900 m
6,233.596 ft
southwest of St Anne, it is the closest Channel Island airport to the south coast of England and the coast of France.

Maps

Terrain

Loading map...

Airport Layout

Loading map...


Accidents & Serious Incidents at or in vicinity of EGJA

None on SKYbrary